Location: Nelson
(41.2830°S, 173.2830°E)
Time: 00:30:48
(UTC+13:00)

ATLAS CENTAUR R/B - Pass Details

Date: 30 September 2021
Orbit: 459 x 683 km, 64.6° (Epoch: 22 October)

Event Time Altitude Azimuth Distance (km) Brightness Sun altitude
Rises 06:07:01 0° 202° (SSW) 2,643 4.7 -11.2°
Reaches altitude 10° 06:09:39 10° 186° (S) 1,714 3.9 -10.8°
Maximum altitude 06:12:37 21° 134° (SE) 1,135 3.7 -10.2°
Drops below altitude 10° 06:15:28 10° 83° (E) 1,643 5.1 -9.7°
Sets 06:17:55 0° 66° (ENE) 2,498 5.7 -9.2°
